QPF
0.00 0.00 0.02 0.03 0.03 0.03 0.03 0.03 0.03 0.02 0.02 0.02 0.03 0.03 0.03 0.04 0.04 0.04 0.03 0.03 0.04 0.04 0.02 0.02 0.03 0.03 0.03 0.02 0.02 0.02 0.02 0.01 0.01 0.01 0.02 0.03 0.02 0.02 0.01 0.01 0.01 0.02 0.04
0.00 0.00 0.01 0.02 0.02 0.02 0.03 0.03 0.03 0.02 0.02 0.03 0.03 0.03 0.04 0.04 0.05 0.04 0.03 0.03 0.03 0.03 0.02 0.02 0.03 0.04 0.04 0.02 0.02 0.02 0.02 0.01 0.01 0.01 0.01 0.01 0.01 0.01 0.01 0.00 0.01 0.02 0.02
0.00 0.00 0.01 0.01 0.01 0.02 0.02 0.03 0.03 0.03 0.04 0.04 0.04 0.04 0.05 0.06 0.06 0.04 0.03 0.03 0.04 0.04 0.04 0.03 0.04 0.04 0.02 0.02 0.02 0.02 0.01 0.01 0.00 0.00 0.01 0.01 0.01 0.01 0.01 0.00 0.01 0.01 0.01
0.00 0.00 0.01 0.02 0.02 0.02 0.02 0.02 0.03 0.04 0.04 0.05 0.05 0.04 0.05 0.07 0.07 0.06 0.04 0.05 0.04 0.03 0.04 0.04 0.04 0.03 0.01 0.01 0.02 0.01 0.01 0.01 0.00 0.00 0.00 0.01 0.01 0.02 0.01 0.01 0.02 0.02 0.01
0.00 0.00 0.02 0.03 0.03 0.02 0.03 0.02 0.02 0.03 0.03 0.05 0.05 0.05 0.06 0.07 0.07 0.07 0.06 0.06 0.05 0.04 0.03 0.04 0.04 0.02 0.01 0.01 0.01 0.01 0.01 0.01 0.01 0.00 0.01 0.01 0.01 0.02 0.01 0.01 0.01 0.01 0.01
0.00 0.01 0.02 0.03 0.04 0.03 0.03 0.02 0.03 0.03 0.04 0.05 0.06 0.06 0.06 0.05 0.05 0.05 0.05 0.05 0.05 0.05 0.04 0.03 0.03 0.03 0.02 0.02 0.01 0.01 0.01 0.01 0.01 0.01 0.01 0.01 0.01 0.01 0.01 0.01 0.01 0.00 0.01
0.01 0.01 0.03 0.05 0.06 0.05 0.03 0.02 0.03 0.04 0.05 0.05 0.06 0.08 0.08 0.06 0.06 0.06 0.06 0.05 0.04 0.05 0.04 0.04 0.04 0.03 0.02 0.02 0.02 0.01 0.01 0.01 0.01 0.00 0.00 0.01 0.01 0.01 0.01 0.01 0.01 0.01 0.01
0.01 0.02 0.03 0.06 0.08 0.07 0.04 0.03 0.03 0.03 0.04 0.05 0.09 0.14 0.12 0.10 0.09 0.09 0.10 0.08 0.05 0.05 0.05 0.04 0.03 0.04 0.04 0.02 0.02 0.01 0.01 0.00 0.00 0.00 0.00 0.00 0.00 0.01 0.01 0.01 0.01 0.01 0.01
0.02 0.03 0.03 0.05 0.07 0.08 0.08 0.07 0.05 0.04 0.04 0.05 0.10 0.10 0.08 0.09 0.10 0.11 0.12 0.11 0.07 0.04 0.04 0.04 0.03 0.03 0.04 0.04 0.04 0.01 0.00 0.00 0.00 0.00 0.00 0.00 0.00 0.01 0.01 0.01 0.01 0.00 0.01
0.03 0.03 0.04 0.04 0.04 0.06 0.07 0.07 0.07 0.06 0.05 0.04 0.05 0.04 0.03 0.05 0.08 0.10 0.09 0.09 0.07 0.05 0.04 0.05 0.03 0.03 0.03 0.03 0.03 0.02 0.01 0.00 0.00 0.00 0.00 0.00 0.00 0.00 0.01 0.01 0.01 0.01 0.01
0.04 0.05 0.05 0.04 0.04 0.05 0.06 0.06 0.08 0.07 0.05 0.04 0.03 0.02 0.02 0.04 0.07 0.07 0.07 0.06 0.06 0.05 0.05 0.05 0.04 0.03 0.02 0.02 0.03 0.02 0.01 0.01 0.00 0.00 0.00 0.00 0.00 0.00 0.01 0.03 0.02 0.02 0.01
0.04 0.05 0.05 0.06 0.06 0.06 0.06 0.07 0.09 0.07 0.05 0.03 0.02 0.02 0.02 0.02 0.04 0.05 0.06 0.06 0.05 0.04 0.04 0.05 0.06 0.04 0.03 0.02 0.02 0.01 0.02 0.01 0.00 0.00 0.00 0.00 0.00 0.00 0.01 0.02 0.03 0.03 0.02
0.04 0.04 0.05 0.05 0.07 0.07 0.06 0.06 0.09 0.12 0.06 0.04 0.03 0.02 0.02 0.02 0.02 0.03 0.03 0.03 0.02 0.03 0.04 0.05 0.06 0.05 0.03 0.02 0.02 0.02 0.02 0.01 0.01 0.00 0.00 0.00 0.00 0.00 0.00 0.01 0.02 0.03 0.02
0.06 0.05 0.05 0.06 0.06 0.06 0.06 0.05 0.06 0.08 0.05 0.04 0.03 0.02 0.02 0.02 0.02 0.02 0.03 0.03 0.03 0.02 0.02 0.04 0.05 0.04 0.03 0.02 0.02 0.02 0.02 0.01 0.01 0.01 0.00 0.00 0.00 0.00 0.00 0.01 0.01 0.02 0.02
0.05 0.05 0.04 0.05 0.05 0.05 0.06 0.07 0.07 0.07 0.05 0.04 0.04 0.04 0.03 0.01 0.01 0.02 0.03 0.04 0.04 0.03 0.03 0.03 0.04 0.04 0.03 0.03 0.02 0.02 0.02 0.02 0.02 0.01 0.01 0.00 0.00 0.00 0.00 0.00 0.01 0.02 0.02
0.03 0.04 0.04 0.03 0.04 0.04 0.05 0.09 0.10 0.10 0.11 0.09 0.06 0.06 0.05 0.03 0.01 0.02 0.03 0.03 0.03 0.03 0.03 0.03 0.04 0.04 0.04 0.03 0.02 0.02 0.02 0.02 0.02 0.02 0.01 0.01 0.00 0.00 0.00 0.00 0.00 0.01 0.02
0.02 0.03 0.03 0.03 0.03 0.03 0.03 0.05 0.08 0.09 0.09 0.11 0.09 0.09 0.08 0.05 0.03 0.02 0.01 0.02 0.02 0.02 0.02 0.03 0.03 0.04 0.04 0.03 0.02 0.02 0.02 0.02 0.02 0.01 0.01 0.01 0.01 0.00 0.00 0.00 0.00 0.00 0.01
0.02 0.02 0.02 0.02 0.02 0.02 0.02 0.02 0.03 0.05 0.06 0.08 0.07 0.07 0.08 0.07 0.05 0.03 0.02 0.01 0.01 0.01 0.01 0.02 0.02 0.03 0.03 0.03 0.03 0.02 0.02 0.02 0.02 0.02 0.02 0.02 0.01 0.01 0.01 0.00 0.00 0.00 0.00
0.02 0.02 0.03 0.03 0.02 0.01 0.02 0.02 0.01 0.03 0.03 0.04 0.05 0.04 0.05 0.05 0.06 0.07 0.06 0.03 0.01 0.01 0.00 0.01 0.01 0.02 0.03 0.02 0.02 0.03 0.02 0.02 0.02 0.02 0.02 0.02 0.01 0.01 0.01 0.01 0.01 0.00 0.00
0.02 0.02 0.03 0.03 0.03 0.02 0.02 0.02 0.01 0.02 0.02 0.02 0.03 0.03 0.04 0.04 0.04 0.05 0.08 0.06 0.02 0.01 0.00 0.00 0.00 0.01 0.02 0.02 0.02 0.02 0.03 0.03 0.03 0.03 0.02 0.01 0.01 0.01 0.01 0.01 0.01 0.00 0.00
0.02 0.02 0.03 0.03 0.03 0.03 0.02 0.02 0.01 0.01 0.03 0.03 0.03 0.03 0.03 0.04 0.04 0.03 0.04 0.04 0.03 0.02 0.01 0.00 0.00 0.00 0.01 0.01 0.02 0.02 0.02 0.01 0.01 0.02 0.02 0.02 0.01 0.01 0.01 0.00 0.01 0.01 0.00
0.03 0.03 0.03 0.03 0.03 0.02 0.02 0.02 0.02 0.02 0.03 0.04 0.03 0.02 0.02 0.02 0.03 0.04 0.03 0.03 0.03 0.02 0.02 0.01 0.01 0.00 0.00 0.00 0.01 0.02 0.02 0.02 0.01 0.01 0.01 0.02 0.02 0.01 0.01 0.00 0.01 0.01 0.00
0.03 0.03 0.03 0.03 0.03 0.03 0.02 0.02 0.01 0.01 0.02 0.02 0.02 0.02 0.02 0.02 0.02 0.04 0.04 0.04 0.03 0.02 0.02 0.02 0.01 0.01 0.01 0.00 0.01 0.01 0.01 0.01 0.01 0.01 0.01 0.01 0.02 0.02 0.02 0.02 0.02 0.02 0.01
0.02 0.02 0.03 0.04 0.03 0.03 0.03 0.03 0.02 0.02 0.02 0.02 0.02 0.02 0.02 0.02 0.03 0.03 0.03 0.04 0.04 0.04 0.04 0.03 0.03 0.02 0.02 0.02 0.01 0.01 0.01 0.01 0.01 0.01 0.01 0.01 0.01 0.01 0.02 0.02 0.02 0.02 0.02
0.02 0.02 0.03 0.04 0.04 0.03 0.03 0.04 0.03 0.03 0.02 0.02 0.03 0.02 0.02 0.02 0.03 0.03 0.04 0.04 0.05 0.05 0.05 0.04 0.04 0.04 0.03 0.02 0.02 0.01 0.01 0.01 0.01 0.01 0.01 0.00 0.01 0.01 0.01 0.01 0.01 0.02 0.02
0.02 0.02 0.04 0.05 0.04 0.03 0.02 0.03 0.03 0.03 0.03 0.03 0.03 0.03 0.03 0.04 0.05 0.05 0.05 0.06 0.06 0.05 0.05 0.04 0.04 0.03 0.03 0.02 0.01 0.01 0.01 0.01 0.01 0.01 0.01 0.01 0.01 0.01 0.01 0.01 0.01 0.01 0.02
MSLP
1009.29 1009.43 1009.78 1010.29 1010.88 1011.46 1011.97 1012.37 1012.66 1012.86 1013.02 1013.18 1013.38 1013.64 1013.95 1014.28 1014.61 1014.91 1015.16 1015.37 1015.54 1015.69 1015.87 1016.07 1016.30 1016.56 1016.81 1017.04 1017.23 1017.37 1017.46 1017.53 1017.57 1017.63 1017.70 1017.79 1017.89 1017.97 1018.03 1018.04 1018.01 1017.94 1017.85
1008.92 1009.13 1009.55 1010.12 1010.77 1011.39 1011.95 1012.39 1012.72 1012.95 1013.14 1013.33 1013.55 1013.82 1014.14 1014.48 1014.82 1015.12 1015.38 1015.59 1015.77 1015.95 1016.14 1016.36 1016.62 1016.88 1017.14 1017.37 1017.55 1017.67 1017.75 1017.80 1017.84 1017.91 1017.99 1018.10 1018.21 1018.30 1018.36 1018.36 1018.31 1018.22 1018.12
1008.58 1008.84 1009.32 1009.94 1010.63 1011.30 1011.89 1012.37 1012.74 1013.01 1013.24 1013.45 1013.70 1013.99 1014.32 1014.66 1014.99 1015.29 1015.55 1015.77 1015.97 1016.17 1016.39 1016.64 1016.92 1017.20 1017.46 1017.68 1017.84 1017.95 1018.01 1018.05 1018.09 1018.15 1018.25 1018.36 1018.49 1018.59 1018.65 1018.66 1018.61 1018.52 1018.41
1008.33 1008.64 1009.16 1009.81 1010.52 1011.22 1011.83 1012.34 1012.74 1013.05 1013.31 1013.56 1013.84 1014.14 1014.48 1014.82 1015.15 1015.45 1015.71 1015.94 1016.16 1016.39 1016.65 1016.92 1017.22 1017.52 1017.78 1018.00 1018.15 1018.24 1018.28 1018.31 1018.34 1018.40 1018.49 1018.61 1018.75 1018.86 1018.93 1018.95 1018.92 1018.84 1018.75
1008.24 1008.60 1009.14 1009.80 1010.50 1011.19 1011.81 1012.32 1012.74 1013.08 1013.37 1013.66 1013.96 1014.29 1014.64 1014.99 1015.32 1015.63 1015.90 1016.15 1016.39 1016.65 1016.93 1017.23 1017.55 1017.85 1018.12 1018.33 1018.47 1018.54 1018.58 1018.59 1018.61 1018.66 1018.75 1018.87 1018.99 1019.11 1019.19 1019.23 1019.22 1019.17 1019.11
1008.35 1008.74 1009.27 1009.92 1010.59 1011.24 1011.83 1012.33 1012.74 1013.10 1013.42 1013.74 1014.08 1014.44 1014.82 1015.19 1015.54 1015.86 1016.14 1016.41 1016.68 1016.96 1017.25 1017.57 1017.89 1018.20 1018.46 1018.67 1018.80 1018.87 1018.89 1018.90 1018.91 1018.95 1019.02 1019.12 1019.24 1019.35 1019.44 1019.49 1019.50 1019.48 1019.46
1008.61 1009.02 1009.54 1010.14 1010.76 1011.35 1011.89 1012.35 1012.75 1013.12 1013.46 1013.82 1014.20 1014.60 1015.01 1015.41 1015.79 1016.14 1016.44 1016.73 1017.01 1017.30 1017.60 1017.92 1018.24 1018.54 1018.79 1018.99 1019.12 1019.19 1019.21 1019.21 1019.22 1019.25 1019.31 1019.39 1019.49 1019.58 1019.66 1019.72 1019.75 1019.76 1019.77
1008.94 1009.36 1009.86 1010.41 1010.96 1011.48 1011.95 1012.37 1012.75 1013.12 1013.49 1013.89 1014.31 1014.76 1015.21 1015.65 1016.06 1016.44 1016.77 1017.07 1017.36 1017.65 1017.95 1018.25 1018.55 1018.83 1019.07 1019.26 1019.39 1019.46 1019.50 1019.51 1019.52 1019.54 1019.59 1019.65 1019.72 1019.79 1019.86 1019.91 1019.94 1019.97 1020.00
1009.22 1009.64 1010.11 1010.61 1011.09 1011.55 1011.96 1012.34 1012.71 1013.08 1013.48 1013.92 1014.39 1014.89 1015.38 1015.87 1016.31 1016.71 1017.07 1017.38 1017.67 1017.95 1018.23 1018.51 1018.78 1019.03 1019.25 1019.44 1019.57 1019.66 1019.72 1019.75 1019.78 1019.81 1019.85 1019.89 1019.94 1019.98 1020.02 1020.05 1020.08 1020.12 1020.16
1009.33 1009.75 1010.20 1010.65 1011.09 1011.50 1011.88 1012.24 1012.60 1013.00 1013.43 1013.90 1014.41 1014.95 1015.49 1016.01 1016.48 1016.91 1017.28 1017.60 1017.89 1018.16 1018.42 1018.67 1018.91 1019.13 1019.34 1019.51 1019.66 1019.77 1019.86 1019.92 1019.98 1020.02 1020.07 1020.10 1020.13 1020.15 1020.16 1020.17 1020.18 1020.21 1020.24
1009.21 1009.62 1010.06 1010.49 1010.90 1011.29 1011.67 1012.04 1012.42 1012.85 1013.31 1013.82 1014.37 1014.93 1015.50 1016.04 1016.53 1016.98 1017.37 1017.70 1018.00 1018.25 1018.49 1018.72 1018.93 1019.13 1019.32 1019.50 1019.65 1019.79 1019.91 1020.01 1020.10 1020.17 1020.23 1020.27 1020.29 1020.29 1020.28 1020.27 1020.26 1020.26 1020.28
1008.84 1009.24 1009.67 1010.10 1010.52 1010.93 1011.33 1011.74 1012.17 1012.63 1013.13 1013.67 1014.24 1014.82 1015.39 1015.94 1016.45 1016.91 1017.32 1017.67 1017.97 1018.23 1018.46 1018.68 1018.87 1019.06 1019.24 1019.41 1019.58 1019.74 1019.89 1020.03 1020.15 1020.25 1020.33 1020.38 1020.40 1020.40 1020.38 1020.36 1020.33 1020.31 1020.30
1008.26 1008.64 1009.07 1009.52 1009.97 1010.42 1010.88 1011.35 1011.85 1012.36 1012.90 1013.46 1014.04 1014.62 1015.19 1015.74 1016.25 1016.72 1017.14 1017.51 1017.84 1018.12 1018.36 1018.58 1018.77 1018.96 1019.13 1019.31 1019.48 1019.66 1019.83 1019.99 1020.13 1020.26 1020.36 1020.43 1020.47 1020.47 1020.46 1020.43 1020.39 1020.36 1020.33
1007.53 1007.90 1008.33 1008.80 1009.30 1009.82 1010.36 1010.91 1011.48 1012.05 1012.63 1013.21 1013.78 1014.35 1014.91 1015.44 1015.95 1016.43 1016.88 1017.28 1017.64 1017.95 1018.22 1018.46 1018.66 1018.85 1019.03 1019.21 1019.38 1019.56 1019.73 1019.90 1020.06 1020.20 1020.31 1020.40 1020.45 1020.48 1020.48 1020.47 1020.44 1020.40 1020.36
1006.75 1007.09 1007.51 1008.01 1008.57 1009.17 1009.80 1010.44 1011.08 1011.71 1012.32 1012.92 1013.48 1014.04 1014.57 1015.10 1015.61 1016.10 1016.57 1017.01 1017.41 1017.76 1018.07 1018.34 1018.57 1018.77 1018.95 1019.12 1019.29 1019.45 1019.62 1019.77 1019.92 1020.06 1020.17 1020.27 1020.35 1020.40 1020.43 1020.45 1020.43 1020.40 1020.36
1005.96 1006.27 1006.69 1007.22 1007.83 1008.50 1009.21 1009.94 1010.65 1011.34 1011.99 1012.59 1013.16 1013.69 1014.22 1014.73 1015.24 1015.76 1016.25 1016.73 1017.17 1017.57 1017.92 1018.22 1018.48 1018.69 1018.88 1019.04 1019.20 1019.34 1019.48 1019.61 1019.73 1019.84 1019.95 1020.05 1020.14 1020.22 1020.28 1020.32 1020.34 1020.34 1020.31
1005.20 1005.48 1005.90 1006.44 1007.10 1007.83 1008.62 1009.42 1010.20 1010.93 1011.61 1012.23 1012.80 1013.33 1013.85 1014.37 1014.89 1015.42 1015.95 1016.46 1016.94 1017.37 1017.76 1018.08 1018.36 1018.59 1018.78 1018.94 1019.09 1019.21 1019.31 1019.40 1019.49 1019.57 1019.65 1019.74 1019.83 1019.92 1020.01 1020.09 1020.15 1020.17 1020.17
1004.46 1004.72 1005.13 1005.69 1006.37 1007.16 1008.00 1008.85 1009.69 1010.47 1011.18 1011.82 1012.40 1012.94 1013.47 1014.01 1014.55 1015.10 1015.65 1016.19 1016.69 1017.14 1017.55 1017.89 1018.18 1018.42 1018.62 1018.79 1018.92 1019.02 1019.10 1019.16 1019.21 1019.25 1019.30 1019.36 1019.44 1019.54 1019.65 1019.76 1019.85 1019.91 1019.94
1003.71 1003.96 1004.37 1004.94 1005.65 1006.46 1007.34 1008.24 1009.12 1009.93 1010.67 1011.34 1011.95 1012.52 1013.07 1013.63 1014.20 1014.77 1015.34 1015.89 1016.40 1016.86 1017.26 1017.61 1017.91 1018.16 1018.37 1018.55 1018.69 1018.79 1018.86 1018.89 1018.91 1018.91 1018.93 1018.96 1019.03 1019.12 1019.24 1019.37 1019.49 1019.59 1019.64
1002.91 1003.19 1003.61 1004.19 1004.91 1005.75 1006.65 1007.58 1008.48 1009.32 1010.09 1010.79 1011.43 1012.04 1012.63 1013.23 1013.82 1014.42 1015.00 1015.55 1016.05 1016.50 1016.89 1017.24 1017.54 1017.80 1018.03 1018.23 1018.40 1018.52 1018.59 1018.62 1018.61 1018.59 1018.58 1018.59 1018.63 1018.72 1018.84 1018.99 1019.13 1019.25 1019.33
1002.06 1002.38 1002.83 1003.43 1004.17 1005.01 1005.93 1006.87 1007.79 1008.65 1009.45 1010.18 1010.86 1011.51 1012.14 1012.77 1013.40 1014.02 1014.61 1015.15 1015.64 1016.07 1016.45 1016.78 1017.08 1017.36 1017.62 1017.85 1018.05 1018.21 1018.31 1018.35 1018.34 1018.31 1018.28 1018.27 1018.30 1018.38 1018.51 1018.67 1018.83 1018.97 1019.08
1001.15 1001.54 1002.04 1002.67 1003.42 1004.28 1005.20 1006.14 1007.06 1007.94 1008.75 1009.51 1010.23 1010.92 1011.59 1012.27 1012.93 1013.57 1014.16 1014.70 1015.17 1015.58 1015.94 1016.27 1016.57 1016.87 1017.16 1017.44 1017.68 1017.88 1018.02 1018.09 1018.09 1018.07 1018.03 1018.02 1018.05 1018.13 1018.28 1018.45 1018.64 1018.82 1018.96
1000.20 1000.68 1001.25 1001.93 1002.71 1003.57 1004.49 1005.43 1006.35 1007.22 1008.04 1008.81 1009.55 1010.28 1010.99 1011.70 1012.40 1013.06 1013.67 1014.20 1014.67 1015.07 1015.42 1015.74 1016.05 1016.37 1016.69 1017.01 1017.30 1017.54 1017.72 1017.82 1017.85 1017.84 1017.82 1017.82 1017.87 1017.98 1018.15 1018.37 1018.60 1018.82 1019.01
999.24 999.84 1000.48 1001.21 1002.02 1002.90 1003.82 1004.75 1005.66 1006.52 1007.33 1008.11 1008.86 1009.60 1010.35 1011.09 1011.81 1012.49 1013.11 1013.66 1014.13 1014.53 1014.89 1015.21 1015.54 1015.88 1016.23 1016.57 1016.90 1017.17 1017.38 1017.50 1017.56 1017.58 1017.58 1017.62 1017.71 1017.87 1018.11 1018.39 1018.70 1018.99 1019.23
998.30 999.00 999.73 1000.52 1001.37 1002.27 1003.19 1004.11 1005.00 1005.84 1006.64 1007.41 1008.16 1008.91 1009.66 1010.42 1011.16 1011.86 1012.51 1013.08 1013.57 1013.99 1014.36 1014.70 1015.04 1015.39 1015.76 1016.12 1016.46 1016.75 1016.97 1017.11 1017.19 1017.23 1017.28 1017.37 1017.53 1017.77 1018.09 1018.48 1018.88 1019.27 1019.60
997.36 998.16 998.97 999.82 1000.72 1001.64 1002.57 1003.49 1004.36 1005.19 1005.97 1006.71 1007.44 1008.18 1008.93 1009.69 1010.45 1011.17 1011.84 1012.44 1012.96 1013.41 1013.80 1014.17 1014.53 1014.89 1015.26 1015.63 1015.96 1016.24 1016.46 1016.61 1016.70 1016.78 1016.88 1017.03 1017.28 1017.63 1018.07 1018.57 1019.10 1019.60 1020.04
Thickness
5713 5714 5711 5711 5712 5713 5713 5713 5713 5714 5714 5714 5714 5714 5715 5715 5715 5715 5715 5715 5714 5715 5715 5715 5716 5716 5716 5716 5716 5716 5716 5716 5716 5716 5716 5716 5717 5716 5716 5716 5717 5718 5717
5710 5710 5707 5708 5708 5708 5708 5709 5709 5709 5710 5710 5710 5710 5710 5710 5710 5710 5710 5710 5710 5711 5711 5711 5711 5711 5711 5711 5711 5711 5711 5711 5711 5712 5712 5713 5713 5713 5713 5713 5713 5714 5713
5705 5705 5703 5703 5703 5704 5704 5704 5705 5705 5705 5706 5706 5706 5706 5705 5706 5706 5706 5705 5706 5706 5706 5707 5707 5707 5707 5707 5707 5707 5707 5706 5707 5707 5709 5710 5709 5708 5708 5708 5709 5709 5709
5700 5700 5699 5698 5698 5699 5699 5699 5700 5700 5700 5701 5701 5701 5701 5701 5701 5701 5701 5701 5701 5701 5701 5701 5702 5702 5702 5702 5702 5702 5701 5701 5702 5703 5706 5706 5706 5704 5704 5704 5704 5704 5704
5694 5694 5693 5692 5693 5694 5694 5695 5695 5695 5696 5696 5696 5696 5696 5696 5696 5696 5696 5696 5696 5696 5696 5696 5696 5696 5697 5696 5696 5696 5696 5697 5697 5700 5701 5701 5701 5699 5699 5699 5699 5699 5700
5688 5688 5687 5687 5687 5688 5689 5689 5690 5690 5690 5690 5691 5691 5691 5691 5691 5691 5691 5691 5691 5691 5691 5691 5691 5691 5691 5691 5691 5691 5691 5692 5693 5696 5696 5696 5696 5694 5695 5695 5695 5695 5695
5682 5681 5681 5680 5681 5681 5682 5683 5684 5684 5684 5684 5684 5684 5685 5685 5686 5686 5686 5686 5686 5685 5685 5685 5686 5686 5686 5685 5685 5685 5686 5687 5689 5690 5690 5690 5690 5689 5690 5690 5690 5690 5690
5674 5674 5674 5673 5674 5675 5676 5676 5677 5677 5678 5678 5678 5678 5678 5679 5680 5680 5680 5680 5680 5680 5680 5679 5680 5680 5680 5680 5679 5679 5680 5681 5683 5684 5684 5684 5683 5684 5684 5684 5685 5685 5685
5666 5667 5667 5667 5668 5668 5669 5669 5670 5671 5671 5671 5671 5671 5671 5672 5673 5674 5674 5674 5674 5674 5673 5674 5674 5674 5674 5673 5673 5673 5674 5675 5678 5678 5678 5678 5677 5678 5678 5679 5679 5679 5679
5658 5659 5659 5660 5661 5662 5662 5662 5662 5663 5663 5663 5663 5664 5664 5665 5666 5666 5667 5667 5667 5667 5667 5667 5667 5667 5667 5667 5667 5667 5668 5669 5672 5672 5672 5672 5671 5671 5672 5673 5673 5673 5674
5650 5651 5652 5653 5654 5654 5655 5655 5655 5655 5655 5655 5655 5656 5657 5658 5659 5659 5660 5660 5660 5660 5660 5660 5660 5660 5660 5661 5661 5661 5662 5664 5665 5666 5665 5664 5664 5665 5665 5666 5666 5667 5667
5643 5643 5644 5645 5646 5647 5648 5648 5648 5648 5648 5647 5648 5648 5649 5650 5651 5652 5651 5652 5653 5653 5653 5653 5653 5653 5654 5655 5655 5655 5656 5657 5658 5659 5658 5657 5658 5659 5659 5659 5660 5660 5661
5636 5635 5636 5637 5638 5639 5640 5641 5640 5640 5640 5640 5640 5640 5641 5642 5642 5643 5644 5644 5645 5645 5646 5646 5646 5647 5647 5648 5649 5649 5650 5650 5651 5651 5651 5650 5651 5652 5652 5653 5653 5653 5654
5627 5627 5628 5628 5629 5630 5631 5632 5632 5632 5632 5632 5631 5631 5633 5633 5634 5635 5636 5637 5637 5638 5638 5639 5639 5640 5640 5641 5641 5642 5642 5643 5643 5643 5643 5642 5643 5644 5645 5646 5646 5646 5647
5619 5619 5620 5620 5621 5622 5623 5623 5624 5624 5624 5623 5622 5623 5624 5625 5626 5627 5628 5628 5629 5630 5630 5631 5632 5632 5633 5633 5633 5634 5634 5635 5635 5635 5635 5634 5634 5635 5636 5637 5638 5639 5639
5613 5612 5612 5612 5613 5614 5615 5615 5615 5615 5614 5614 5614 5614 5615 5615 5616 5618 5619 5620 5620 5621 5622 5622 5623 5624 5624 5625 5625 5626 5626 5626 5627 5627 5627 5626 5626 5627 5628 5629 5629 5630 5631
5605 5605 5604 5604 5605 5606 5606 5606 5606 5605 5605 5606 5605 5606 5606 5606 5607 5609 5610 5611 5611 5611 5612 5613 5614 5614 5615 5616 5617 5617 5617 5618 5618 5618 5618 5618 5619 5618 5618 5619 5620 5621 5622
5597 5597 5597 5596 5596 5597 5597 5596 5597 5597 5596 5597 5596 5597 5597 5597 5598 5599 5600 5601 5601 5602 5603 5604 5605 5606 5607 5608 5609 5609 5609 5609 5610 5609 5609 5609 5610 5610 5610 5610 5610 5611 5612
5590 5590 5588 5588 5588 5588 5587 5587 5587 5586 5586 5586 5587 5588 5588 5588 5589 5589 5590 5591 5591 5592 5593 5594 5595 5597 5598 5598 5599 5599 5600 5600 5600 5600 5601 5601 5601 5601 5601 5601 5601 5601 5602
5582 5582 5581 5580 5580 5580 5579 5578 5577 5576 5576 5576 5577 5578 5578 5579 5579 5580 5581 5581 5582 5583 5584 5585 5585 5586 5587 5588 5589 5590 5590 5591 5591 5591 5592 5591 5591 5592 5592 5592 5592 5592 5592
5573 5573 5573 5572 5572 5571 5571 5571 5570 5569 5569 5568 5568 5568 5568 5569 5570 5571 5571 5572 5572 5573 5574 5575 5575 5576 5577 5577 5579 5581 5581 5582 5582 5581 5581 5581 5582 5582 5582 5582 5582 5582 5583
5565 5565 5565 5564 5564 5563 5563 5564 5563 5561 5559 5559 5558 5558 5558 5559 5560 5561 5562 5563 5562 5563 5564 5564 5564 5565 5566 5566 5568 5571 5574 5574 5573 5571 5571 5571 5572 5571 5572 5571 5572 5571 5572
5556 5556 5556 5556 5555 5555 5555 5554 5552 5551 5550 5550 5549 5549 5549 5549 5550 5551 5552 5553 5553 5553 5554 5554 5554 5555 5556 5555 5556 5558 5563 5568 5564 5562 5561 5560 5560 5560 5561 5561 5561 5560 5560
5547 5547 5547 5548 5547 5546 5546 5545 5545 5545 5545 5543 5541 5540 5539 5540 5541 5542 5542 5542 5542 5543 5543 5544 5544 5544 5544 5544 5544 5544 5545 5548 5550 5553 5551 5550 5549 5549 5549 5549 5549 5549 5549
5539 5538 5538 5539 5538 5537 5537 5537 5536 5536 5535 5533 5532 5531 5531 5531 5531 5531 5531 5532 5532 5532 5532 5532 5532 5532 5533 5533 5532 5533 5533 5533 5534 5538 5543 5541 5539 5538 5537 5537 5537 5537 5537
5529 5528 5529 5529 5528 5528 5527 5527 5526 5526 5525 5524 5523 5522 5521 5521 5520 5521 5521 5521 5521 5521 5521 5521 5521 5521 5521 5520 5520 5520 5521 5522 5524 5524 5528 5529 5529 5528 5526 5525 5525 5525 5525